Regional Weather Roundup
Issued by NWS Huntsville, AL

Home | Current Version | Previous Version | Text Only | Print | Product List | Glossary On
Versions: 1 2 3 4 5 6 7 8 9 10 11 12 13 14 15 16 17 18 19 20 21 22 23 24 25 26 27 28 29 30 31 32 33 34 35 36 37 38 39 40 41 42 43 44 45 46 47 48 49 50
000
ASUS44 KHUN 241410
RWRHUN

WEATHER ROUNDUP FOR THE TENNESSEE VALLEY
NATIONAL WEATHER SERVICE HUNTSVILLE AL
900 AM CDT FRI MAR 24 2017

ALZ001>004-241500-
NORTHWEST ALABAMA

CITY           SKY/WX    TMP DP  RH WIND       PRES   REMARKS
COURTLAND HCN    N/A     64 N/A N/A S12         N/A
RUSSELLVILLE     N/A     64 N/A N/A MISG        N/A
SHOALS AIRPORT PTSUNNY   66  52  60 S16       30.28R
SHOALS TVA RES   N/A     64 N/A N/A MISG        N/A
$$

ALZ005>007-016-241500-
NORTH CENTRAL ALABAMA

CITY           SKY/WX    TMP DP  RH WIND       PRES   REMARKS
CULLMAN AG STN   N/A     63 N/A N/A S6          N/A
DECATUR AP     CLOUDY    62  53  72 S17G24    30.32R
HUNTSVILLE AP  CLOUDY    64  52  64 S16       30.32R
MERIDIANVILLE  PTSUNNY   63  48  59 SE16G23   30.32S
REDSTONE ARSN  CLOUDY    64  52  66 S14       30.31R
VINEMONT AP    CLOUDY    61  50  66 S10G17    30.34S
$$

ALZ008>010-241500-
NORTHEAST ALABAMA

CITY           SKY/WX    TMP DP  RH WIND       PRES   REMARKS
ALBERTVILLE    CLOUDY    61  55  82 S9        30.35R
FORT PAYNE     CLOUDY    59  45  58 S3        30.38R
SCOTTSBORO AP  CLOUDY    63  50  63 S14G24    30.37R
SCOTTSBORO HCN   N/A     63 N/A N/A MISG        N/A
VALLEY HEAD      N/A     59 N/A N/A MISG        N/A
$$

TNZ076-096-097-241500-
SOUTHEASTERN MIDDLE TENNESSEE

CITY           SKY/WX    TMP DP  RH WIND       PRES   REMARKS
TULLAHOMA      CLOUDY    61  46  59 S14       30.32S
WINCHESTER     SUNNY     63  50  63 S18       30.33R
$$

...SURROUNDING SITES...

CITY           SKY/WX    TMP DP  RH WIND       PRES   REMARKS
ATLANTA        PTSUNNY   56  47  71 E8        30.44S
ANNISTON       CLOUDY    61  50  67 E8        30.39R
BIRMINGHAM     CLOUDY    62  51  67 SE14G25   30.36R
CHATTANOOGA    PTSUNNY   59  41  51 S15G23    30.40R
DALTON         CLOUDY    55  45  67 SE13      30.43R
GADSDEN        CLOUDY    62  51  67 SE7       30.39R
GOLDEN TRNGL   CLOUDY    64  52  63 SE21G29   30.20S
HALEYVILLE     CLOUDY    63  52  67 S15G23    30.30S
JACKSON TN     CLOUDY    66  57  72 S15G25    30.17R
MEMPHIS        CLOUDY    68  60  75 S16       30.16R
NASHVILLE      PTSUNNY   65  51  60 S18G28    30.26S
OXFORD MS      PTSUNNY   64  57  77 SE12G20   30.19R
ROME           CLOUDY    59  44  57 SE7       30.41R
SAVANNAH       SUNNY     66  55  68 S16G26    30.20S
TUPELO         CLOUDY    66  55  67 SE21G32   30.21R
TUSCALOOSA     CLOUDY    65  51  60 SE10G23   30.31R
$$

...GULF COAST WEATHER...

CITY           SKY/WX    TMP DP  RH WIND       PRES   REMARKS
GULFPORT       CLOUDY    73  66  78 SE21      30.23R
PASCAGOULA     CLOUDY    72  62  71 SE16G28   30.25R
MOBILE         CLOUDY    69  61  75 SE16G26   30.28R
GULF SHORES    CLOUDY    69  64  85 E15G29    30.29R
PENSACOLA      CLOUDY    68  62  81 E18G25    30.29S
DESTIN         CLOUDY    66  61  84 SE13      30.34R
PANAMA CITY    MOSUNNY   65  57  77 E13G18    30.35R
APPALACHICOLA  SUNNY     67  61  81 E15G22    30.35R
$$




USA.gov is the U.S. government's official web portal to all federal, state and local government web resources and services.